Date,TemperatureHighF,TemperatureAvgF,TemperatureLowF,DewpointHighF,DewpointAvgF,DewpointLowF,HumidityHigh,HumidityAvg,HumidityLow,PressureMaxIn,PressureMinIn,WindSpeedMaxMPH,WindSpeedAvgMPH,GustSpeedMaxMPH,PrecipitationSumIn
2013-1-1,47,43,38,38,25,13,80,51,32,30.08,29.90,6,0,6,0.20
2013-1-2,47,41,37,39,26,16,84,56,32,30.20,29.93,6,0,6,0.08
2013-1-3,42,36,32,21,17,10,60,46,35,30.26,30.14,4,0,4,0.00
2013-1-4,46,35,27,12,9,4,50,35,20,30.32,30.14,10,1,10,0.00
2013-1-5,49,38,28,17,10,4,42,32,16,30.37,30.20,6,1,6,0.00
2013-1-6,52,42,36,26,21,16,60,43,28,30.20,29.99,8,0,8,0.04
2013-1-7,48,39,32,18,15,12,49,37,27,30.43,30.17,6,0,6,0.04
2013-1-8,52,40,29,27,22,15,60,48,31,30.46,30.32,6,0,6,0.04
2013-1-9,64,50,39,40,34,25,69,54,35,30.40,30.29,6,1,6,0.00
2013-1-10,58,51,44,39,23,11,62,36,17,30.52,30.37,6,0,6,0.00
2013-1-11,46,42,39,41,33,21,83,71,40,30.40,30.14,5,0,5,0.12
2013-1-12,67,56,45,60,48,40,89,76,49,30.14,30.05,4,0,4,0.00
2013-1-13,71,60,52,59,48,42,87,66,36,30.08,29.96,9,2,9,0.00
2013-1-14,62,58,47,56,51,41,91,79,64,30.20,30.02,9,1,9,1.57
2013-1-15,47,40,38,42,36,35,88,86,83,30.26,30.11,8,3,8,1.61
2013-1-16,48,42,38,44,38,33,87,84,80,30.11,29.93,6,0,6,0.71
2013-1-17,48,41,33,44,35,28,89,82,66,30.17,29.96,10,2,10,1.61
2013-1-18,39,33,29,30,22,13,88,64,40,30.52,30.17,0,0,0,0.67
2013-1-19,46,36,29,19,16,14,62,45,29,30.49,30.11,6,2,7,0.20
2013-1-20,54,42,34,22,17,12,48,36,21,30.11,29.96,10,1,10,0.24
2013-1-21,52,41,31,18,11,-3,47,31,18,30.08,29.84,11,2,11,0.24
2013-1-22,35,28,22,-2,-9,-13,21,19,17,30.32,29.96,10,2,10,0.00
2013-1-23,36,28,18,5,-7,-16,34,21,17,30.37,30.05,9,1,9,0.00
2013-1-24,33,29,21,7,-4,-14,35,24,18,30.55,29.99,12,2,12,0.00
2013-1-25,26,23,19,14,1,-13,61,41,22,30.55,30.11,6,1,6,0.00
2013-1-26,38,31,23,21,14,8,69,51,34,30.40,30.11,4,0,4,0.04
2013-1-27,39,32,24,14,10,5,48,40,32,30.58,30.40,4,0,4,0.04
2013-1-28,52,41,33,32,25,14,70,53,36,30.46,30.17,8,1,8,0.04
2013-1-29,67,53,41,44,36,28,82,57,24,30.17,29.99,6,1,6,0.04
2013-1-30,68,63,55,56,50,42,82,62,40,29.99,29.34,13,5,13,1.02
2013-1-31,55,41,32,48,16,2,79,37,19,29.96,29.37,13,3,13,0.12